GFSSGP_925_spd_000.txt.gz
Wind_Speed
8 9 13 14 6 10 15 15 15 16 17 8 28 18 14 6 6 13 21 18 18 16 16 15 17 19 19 20 20 20 21 22 23 23 22 20 17 15 13 13 13 11 11 10 9 8 8 7 6
11 15 14 7 6 15 14 17 17 13 7 19 25 22 24 24 24 22 19 18 17 18 16 15 17 18 19 18 19 19 19 20 20 19 20 19 17 15 14 12 11 10 9 9 9 7 7 5 5
14 19 7 6 11 15 14 14 10 11 10 19 24 21 15 20 19 15 25 22 20 20 16 18 17 17 18 18 18 18 17 17 16 15 16 16 15 15 13 12 10 8 8 8 8 6 5 4 4
16 8 8 14 19 18 15 15 16 18 19 21 19 14 21 32 26 29 26 20 20 18 17 17 16 16 15 15 17 17 16 16 14 14 13 13 14 12 11 10 9 8 7 6 6 5 4 5 5
23 3 3 14 18 16 15 17 15 14 18 20 22 19 23 34 29 28 25 23 20 18 16 16 17 16 16 16 16 15 15 14 14 13 11 12 10 9 9 7 6 5 5 4 4 4 5 5 6
2 7 4 14 16 16 17 14 14 18 23 21 20 20 20 27 25 26 23 21 21 20 17 16 16 15 14 15 15 14 14 13 12 11 9 9 8 6 6 4 3 3 3 2 4 5 6 6 7
6 10 4 22 18 16 7 18 15 17 20 19 18 20 16 20 21 26 21 24 22 19 19 16 15 15 14 13 13 13 12 11 10 8 7 7 5 5 4 3 1 1 2 3 6 5 7 8 8
7 4 7 3 19 10 13 15 21 19 16 20 22 13 17 20 24 23 18 20 23 19 18 17 14 14 13 13 12 12 10 10 9 7 6 6 6 7 4 1 3 5 6 6 6 7 8 10 8
32 7 5 9 12 19 20 16 18 17 14 13 11 20 24 24 23 23 29 20 18 20 14 16 14 12 12 13 12 11 10 9 9 7 6 4 5 9 7 4 2 7 11 9 8 7 7 7 8
6 3 11 10 12 22 25 2 16 13 12 12 18 25 27 23 18 24 17 15 16 17 15 15 12 12 15 13 13 11 10 10 9 8 8 4 6 4 4 7 6 5 7 8 7 7 6 4 4
4 12 6 16 11 24 28 23 11 24 12 16 23 24 22 22 18 14 21 18 14 17 17 15 14 12 12 9 13 16 14 15 12 11 10 8 3 4 5 5 3 4 6 3 2 6 7 6 5
6 13 13 8 21 14 18 21 17 24 14 18 20 22 20 18 16 16 14 16 14 11 12 19 12 12 10 8 9 11 15 10 9 13 8 9 4 1 3 3 5 4 5 9 7 6 8 6 8
9 14 9 12 16 17 20 16 17 20 14 19 20 19 18 16 16 16 14 14 15 13 10 11 11 10 7 6 5 6 10 7 8 10 5 7 7 6 5 6 6 8 9 8 7 6 10 13 10
12 11 10 15 12 12 14 15 16 15 18 19 18 16 15 15 16 16 14 16 13 12 12 11 9 10 11 6 5 2 5 1 8 5 7 9 7 7 9 9 7 10 9 11 10 8 13 14 13
9 10 9 11 16 12 18 15 14 16 15 17 16 15 14 13 15 15 14 14 14 13 15 14 11 12 11 9 7 7 8 8 8 11 11 9 10 10 13 14 15 15 11 13 14 14 13 14 15
13 14 12 17 19 3 8 11 13 15 15 15 15 15 14 13 14 13 14 14 15 13 13 11 10 14 14 13 11 9 9 8 7 10 14 13 15 15 14 16 16 14 16 17 15 16 15 15 15
13 13 14 15 20 10 4 11 16 17 15 13 14 13 13 11 14 18 17 13 13 13 14 13 14 11 13 11 11 9 10 10 12 13 15 13 13 11 12 14 15 16 18 15 15 17 16 18 20
17 17 20 15 14 14 14 10 15 17 17 14 13 12 13 14 13 20 20 18 16 18 15 15 11 7 11 7 6 7 8 10 11 11 12 13 10 12 13 14 15 14 15 18 19 18 18 17 16
15 13 17 16 18 25 13 16 18 18 17 16 16 14 15 15 18 19 23 24 22 19 18 13 14 9 8 6 6 7 7 9 11 11 11 9 10 8 8 9 9 11 14 16 16 15 14 15 15
19 11 12 13 16 11 16 20 18 17 17 18 17 16 16 16 16 17 18 15 17 18 21 16 13 11 9 8 8 7 7 8 10 11 8 5 6 6 8 9 11 14 14 15 15 16 14 13 15
16 11 10 15 12 4 12 18 13 15 15 17 18 18 17 17 19 16 19 20 19 16 18 16 14 12 11 9 8 6 7 8 9 2 4 4 3 8 10 9 11 14 15 15 15 12 12 11 14
18 12 18 15 14 11 15 13 18 23 18 16 18 19 19 19 18 18 21 21 21 21 18 20 15 13 10 7 2 3 4 8 3 3 3 10 10 8 11 10 11 11 12 16 15 10 11 12 12
12 16 18 13 11 14 14 9 15 16 16 16 19 20 20 21 21 20 21 22 23 24 21 19 17 13 13 7 3 2 5 9 7 3 6 9 12 9 7 8 7 10 12 14 15 12 12 13 13
18 10 17 9 11 14 17 12 6 9 17 17 9 18 20 21 21 19 26 27 23 24 22 21 19 14 12 10 7 3 0 2 4 6 6 10 6 9 1 4 7 9 11 12 15 14 13 13 14
18 11 8 9 11 13 15 15 10 19 22 21 20 31 21 19 18 17 19 24 25 26 22 22 20 17 15 12 8 3 2 1 4 6 7 6 10 6 5 7 7 9 11 13 13 14 14 14 11
13 16 9 13 12 13 13 9 16 10 15 27 25 27 22 21 19 19 17 25 27 25 24 24 23 20 17 14 10 5 3 4 3 2 1 3 7 7 9 7 7 11 12 12 11 13 12 12 11
15 17 18 18 13 6 7 9 11 9 9 5 9 11 18 21 20 21 20 26 27 25 25 24 23 20 19 17 13 8 7 5 5 2 2 5 4 5 6 7 10 13 15 14 13 13 14 7 9
16 17 13 12 9 10 8 9 10 15 10 11 9 6 7 17 21 19 18 27 29 26 24 25 23 21 21 18 15 12 10 7 7 5 5 6 8 9 10 11 12 14 16 15 15 14 16 14 12
15 11 9 12 10 9 9 4 13 11 8 7 7 8 4 9 15 18 15 26 30 29 27 25 23 21 20 18 15 10 7 8 9 7 7 8 9 9 11 13 14 16 18 18 15 14 16 15 10
21 16 10 9 9 8 9 5 13 11 10 9 7 3 6 2 11 16 15 24 27 27 27 26 25 22 20 18 15 12 9 9 7 7 7 8 9 10 11 13 15 17 18 18 16 15 15 15 13

GFSSGP_925_spd_006.txt.gz
Wind_Speed
12 9 4 2 3 3 6 6 3 9 3 3 3 8 12 10 3 6 18 22 21 24 21 23 23 24 24 25 25 24 25 27 28 28 24 23 21 21 19 16 15 13 11 12 11 11 11 10 8
12 7 2 1 4 2 4 15 9 10 8 7 13 9 12 7 8 12 16 22 23 24 24 23 24 25 25 24 25 26 26 26 24 24 22 21 20 18 16 14 13 12 11 11 9 8 8 6 6
14 7 1 3 1 4 10 13 11 15 13 7 7 13 6 8 13 16 24 27 24 25 25 24 24 24 24 25 25 27 25 23 22 20 20 19 17 16 15 13 12 12 11 9 7 6 6 4 3
12 3 2 2 6 2 16 15 19 14 8 10 12 11 6 11 11 17 28 27 26 26 24 24 23 23 24 25 26 25 24 23 21 20 19 18 17 15 14 12 11 10 8 6 5 4 3 2 1
4 2 4 3 4 9 17 22 20 18 10 15 9 7 6 14 25 32 31 26 29 27 25 24 23 24 24 25 24 22 21 20 19 18 18 16 15 13 12 10 9 7 5 5 2 0 2 2 2
4 2 5 3 7 5 15 20 20 16 18 18 14 10 4 24 25 26 27 26 27 27 26 24 22 23 23 22 21 20 19 17 17 17 16 14 12 10 8 7 6 5 5 2 1 4 5 4 3
8 5 6 2 4 14 16 19 15 19 16 10 12 8 9 19 25 28 24 24 24 24 23 22 21 22 21 21 19 19 18 17 16 14 13 11 8 7 5 4 3 3 2 1 2 5 5 5 3
5 6 5 3 1 4 16 5 18 21 10 18 13 8 10 21 27 28 26 26 24 23 23 22 22 22 22 20 20 19 18 15 13 13 12 10 7 5 3 2 2 3 4 4 4 4 4 3 3
5 5 4 4 7 3 8 11 12 8 16 10 5 12 21 32 28 25 22 24 24 21 20 21 23 21 21 19 19 18 16 14 12 11 11 9 7 6 1 6 5 5 5 4 3 2 2 2 1
5 5 10 6 5 6 7 17 13 9 15 13 17 17 28 32 29 25 22 20 23 25 23 20 20 21 20 18 15 15 16 15 12 11 10 8 6 4 4 2 5 5 2 2 1 1 2 3 3
6 10 10 8 5 9 8 6 2 19 14 26 23 23 26 29 26 26 24 26 28 27 24 23 20 18 18 17 16 14 13 12 12 12 10 7 5 6 8 3 4 1 3 3 3 4 5 5 6
6 16 15 7 8 7 8 6 5 5 12 21 21 22 23 22 21 24 24 24 25 28 24 22 19 18 16 12 15 15 14 14 13 13 11 9 9 8 7 6 4 3 2 3 6 6 6 7 9
16 12 16 14 11 9 8 6 9 14 20 19 20 20 19 19 21 25 30 31 31 28 25 24 22 19 17 17 14 14 15 17 12 13 12 12 12 11 9 7 7 7 6 7 8 7 9 10 12
10 25 23 17 11 7 16 10 7 17 20 19 18 12 15 15 20 18 23 26 28 27 27 26 23 20 17 16 13 13 15 19 17 15 14 14 14 14 13 11 10 8 9 8 10 11 14 14 13
25 22 14 14 11 7 14 7 7 18 20 20 17 13 11 10 22 21 27 30 28 28 25 25 25 20 18 17 15 12 10 10 8 12 13 11 10 12 14 13 11 9 10 11 14 13 15 14 14
8 12 8 6 14 10 10 5 10 20 19 17 18 16 14 11 21 27 32 33 28 26 28 23 22 21 20 16 14 13 13 12 11 12 14 13 13 12 13 15 11 10 12 10 11 12 13 13 13
6 8 13 6 5 9 6 8 12 14 17 17 17 16 16 12 15 24 33 34 29 27 30 27 21 19 17 13 11 11 12 13 16 14 12 12 13 12 13 11 11 11 10 9 9 10 11 12 14
4 8 17 14 10 4 11 8 19 16 15 17 15 13 13 15 16 26 31 33 30 28 27 25 22 19 16 13 11 10 11 13 12 13 12 11 6 5 4 7 5 5 5 7 8 10 10 12 12
4 8 14 11 11 7 15 13 19 16 14 15 13 11 13 15 16 25 31 32 32 29 27 27 22 20 22 19 15 13 13 12 12 11 10 9 5 3 3 2 1 2 5 6 8 10 11 11 11
4 7 9 1 10 7 13 18 18 19 20 18 16 14 15 9 12 18 23 28 30 30 28 25 24 22 24 19 16 13 10 9 8 6 5 7 5 4 2 3 3 3 3 5 5 6 6 6 7
6 8 10 11 5 7 11 1 9 14 14 14 13 18 19 18 16 14 18 24 29 29 28 27 26 23 22 17 14 13 10 9 8 9 12 11 5 3 1 2 3 3 2 5 6 6 6 6 8
8 10 14 9 15 7 7 5 7 16 15 11 12 15 17 18 19 17 20 21 26 31 30 30 27 24 20 19 18 15 12 9 5 12 15 9 5 4 2 4 2 2 3 5 3 5 5 6 6
12 8 11 11 15 7 3 5 11 8 9 11 13 20 20 20 22 21 23 28 33 33 35 32 29 25 22 20 18 18 11 9 13 16 13 7 5 4 7 6 7 2 2 3 4 4 4 4 4
13 5 6 5 5 2 12 7 4 10 25 20 11 19 19 19 22 21 30 30 32 34 35 33 31 28 24 22 19 20 16 14 16 15 13 10 5 3 5 7 2 2 2 2 3 4 5 3 2
4 6 2 2 1 6 8 9 12 20 24 17 20 22 21 21 20 20 21 23 30 33 34 37 35 32 27 27 23 17 12 10 12 12 11 9 9 10 9 5 3 2 1 2 4 4 4 2 1
8 10 6 7 3 6 9 7 11 17 25 20 19 25 22 20 21 22 22 28 31 35 36 36 38 36 34 30 23 17 17 14 9 11 9 11 10 10 7 6 4 2 1 5 6 9 6 4 5
9 4 10 7 1 3 4 8 7 8 16 16 15 16 20 21 21 22 23 30 32 36 38 40 43 42 39 33 26 22 19 15 14 14 14 11 9 9 9 6 6 5 4 5 6 6 6 5 7
16 7 3 3 7 4 5 4 6 5 11 11 12 14 17 19 20 19 19 31 36 39 41 41 45 45 43 36 31 28 21 17 16 15 14 12 11 10 9 7 6 6 7 8 8 8 8 9 10
2 3 4 6 5 6 3 6 7 16 17 17 16 17 14 17 20 20 19 31 36 36 36 38 39 40 43 39 34 30 25 21 20 16 12 11 11 10 9 10 10 10 9 9 11 12 12 13 12
9 10 7 6 5 2 5 6 5 13 12 17 17 13 10 18 18 20 19 29 31 34 33 37 37 38 41 40 37 34 26 24 25 21 15 12 13 12 11 11 12 11 11 12 11 12 12 13 14

GFSSGP_925_spd_009.txt.gz
Wind_Speed
12 10 5 1 3 5 1 3 2 4 4 1 4 8 10 9 3 4 10 14 16 18 18 21 23 22 22 24 24 24 25 26 26 25 23 22 20 19 17 15 13 11 10 10 9 7 6 7 7
13 9 2 1 4 3 3 1 3 3 7 13 10 8 10 5 6 10 12 20 21 20 22 23 23 23 25 24 24 24 24 26 24 21 21 21 20 18 15 13 11 9 9 9 7 5 5 4 4
10 4 2 2 3 4 4 3 6 10 10 4 6 9 3 4 10 14 15 23 23 22 22 22 23 24 24 23 23 24 25 27 24 22 20 19 17 15 13 11 10 9 7 6 5 3 2 2 3
5 3 2 3 1 3 4 6 10 10 3 8 14 10 5 9 10 12 26 25 24 23 22 21 22 21 23 23 24 25 24 23 21 19 17 16 15 13 11 10 8 6 5 4 3 1 1 3 2
3 2 4 4 4 3 5 11 11 7 5 10 5 6 6 3 14 26 26 24 25 23 22 21 21 21 22 24 23 22 20 19 18 17 15 14 13 11 9 8 6 4 3 2 1 2 3 4 3
1 2 5 2 4 4 5 10 12 6 8 10 10 7 3 19 25 24 25 26 25 24 22 21 21 21 22 21 20 20 18 17 17 16 14 12 11 9 8 6 5 3 2 2 3 5 5 4 3
3 4 5 4 6 5 6 8 6 11 10 7 10 6 7 14 22 24 24 25 24 23 23 21 21 20 20 20 19 18 17 16 16 15 13 11 10 8 6 5 3 3 3 4 6 7 6 5 4
1 4 4 1 8 6 6 3 7 10 7 12 11 7 10 19 24 25 23 24 23 23 22 21 21 20 21 21 19 19 18 16 15 13 11 9 8 6 5 4 5 6 7 7 7 6 5 4 3
2 5 3 5 6 5 10 5 7 5 11 4 5 8 15 27 24 23 21 21 22 21 21 20 22 21 21 19 16 15 15 15 13 12 11 9 8 7 5 6 7 7 7 6 6 4 3 5 3
4 5 7 7 7 9 15 14 14 7 12 3 10 16 26 28 24 21 20 19 22 23 23 23 21 21 21 20 18 16 15 14 13 12 12 10 8 7 7 4 8 6 6 4 4 3 6 5 4
6 7 6 7 7 16 14 10 3 17 7 11 23 21 23 24 23 22 22 25 30 28 25 24 24 23 22 20 17 16 16 14 14 13 12 10 8 7 5 6 2 3 4 4 5 5 6 5 6
4 13 6 6 7 8 15 8 7 7 4 18 20 22 21 18 19 20 22 20 21 26 26 25 24 24 23 20 19 18 17 15 16 15 14 12 10 9 7 6 6 6 4 4 5 7 8 6 9
7 5 10 10 9 10 8 7 6 5 12 16 18 20 20 17 23 25 28 29 29 28 26 25 24 23 22 20 17 17 15 15 15 14 14 14 12 11 9 8 7 8 7 8 8 8 8 11 11
3 7 9 8 8 5 12 6 6 8 15 18 20 20 19 18 23 22 20 22 26 30 28 26 24 22 22 20 18 16 15 15 16 16 15 16 15 12 13 12 11 9 9 9 9 9 11 12 13
12 7 9 4 4 6 13 4 6 16 18 18 19 18 18 18 23 23 27 26 32 31 30 28 28 23 22 20 19 14 15 15 19 17 17 16 15 15 14 14 11 8 9 11 11 10 11 10 10
7 5 9 4 5 8 6 4 12 16 19 18 18 16 17 17 23 26 29 31 32 31 32 31 29 27 24 20 20 17 14 14 14 12 14 14 13 12 12 12 11 8 9 9 8 8 8 9 10
5 12 3 5 9 4 2 5 15 17 16 16 15 16 16 13 15 22 28 33 35 34 31 30 31 28 25 21 20 19 17 17 16 14 13 13 13 12 15 13 8 8 8 6 5 6 8 10 12
12 7 9 13 16 7 6 6 18 18 18 17 16 14 15 13 15 26 28 30 34 33 33 31 29 25 23 21 18 16 15 15 15 15 13 12 10 8 8 6 6 3 2 3 5 8 9 10 11
9 6 15 10 7 5 6 10 20 19 17 16 16 15 14 15 16 25 28 30 30 32 33 31 29 24 23 23 19 15 15 14 13 13 11 10 10 7 6 6 5 3 3 3 5 7 6 7 7
7 6 8 2 8 6 4 8 18 20 22 20 19 17 18 15 11 18 24 27 30 33 32 31 30 27 26 25 21 16 12 11 10 7 7 7 9 7 6 6 6 5 3 4 3 4 4 2 3
5 6 6 8 7 6 9 3 9 12 8 13 14 15 14 17 17 15 21 26 29 31 33 31 32 28 26 25 21 15 9 8 8 9 10 12 9 8 7 5 5 5 4 3 3 2 3 1 1
4 9 8 10 15 8 6 5 9 12 15 12 14 13 16 17 17 17 21 24 28 34 33 32 31 30 26 24 22 19 16 13 11 11 14 14 11 9 8 5 5 6 5 6 2 0 1 1 1
10 8 9 9 13 6 5 4 6 11 10 20 19 17 18 17 18 19 21 31 35 36 34 33 31 30 28 27 24 20 17 13 10 12 16 15 12 10 9 9 8 7 7 4 3 2 2 2 1
2 4 7 5 4 5 12 7 5 12 26 26 17 17 19 18 19 19 27 26 28 32 35 34 33 32 30 27 25 23 19 14 14 17 19 14 12 10 10 12 9 7 5 4 2 1 2 4 4
5 7 3 3 2 6 8 4 9 19 25 25 26 21 20 18 18 18 18 22 26 31 37 38 37 37 34 30 28 25 22 18 18 22 19 15 13 10 10 10 7 5 4 3 2 4 3 4 5
7 10 7 7 4 6 6 7 9 16 22 22 17 20 18 19 19 21 21 28 31 33 36 37 38 39 37 34 30 25 22 20 18 20 18 16 15 11 13 11 10 7 5 5 4 6 9 8 8
4 4 9 6 1 4 4 6 8 6 12 17 18 15 19 20 19 22 20 29 32 33 36 40 40 40 42 38 33 29 24 21 17 18 16 14 14 14 14 12 10 9 9 7 7 7 6 11 10
12 7 2 2 6 5 4 4 5 7 8 11 14 17 19 18 17 17 19 28 34 37 39 36 39 39 45 42 38 33 28 24 21 20 20 19 17 17 15 12 11 10 10 10 10 10 10 11 12
3 3 3 5 4 7 4 7 8 7 9 17 19 22 20 17 18 18 19 30 36 35 33 34 34 35 40 45 43 37 31 25 23 22 20 19 18 17 16 13 13 12 12 11 12 13 13 13 13
7 10 9 6 6 1 5 7 5 9 9 14 17 15 10 13 16 17 18 28 28 32 32 34 33 35 41 45 45 40 33 29 25 23 21 20 20 18 16 14 14 13 12 12 13 14 13 13 14

GFSSGP_925_spd_015.txt.gz
Wind_Speed
14 14 9 5 0 3 5 4 4 8 5 3 5 6 8 7 3 8 10 10 15 15 16 19 18 18 17 17 17 19 20 21 20 20 18 15 13 10 9 9 9 9 9 8 9 8 8 9 9
12 7 4 1 3 6 4 2 9 4 8 12 10 6 5 5 5 12 11 13 16 16 15 12 15 17 17 18 19 19 18 18 19 19 16 12 10 9 7 8 7 7 7 7 7 7 8 9 9
9 1 2 2 2 6 4 5 11 13 7 4 5 8 4 5 10 14 13 16 15 14 14 13 15 15 17 17 18 17 17 17 17 16 12 10 10 9 7 6 6 5 6 6 5 6 8 8 8
4 2 1 3 7 5 4 11 14 12 7 6 11 10 6 9 8 10 18 17 17 15 15 15 16 16 16 16 17 17 19 17 15 14 13 11 9 7 6 5 4 4 4 4 5 7 8 8 8
2 1 2 4 5 5 8 12 9 6 6 8 4 6 9 4 12 22 19 18 18 17 15 15 17 16 16 16 17 18 18 14 14 13 11 8 7 5 5 3 3 3 4 4 6 7 7 8 7
2 1 2 4 4 5 7 13 6 3 7 10 12 11 7 10 19 19 19 18 17 17 16 15 16 16 16 16 17 18 17 13 14 11 9 7 5 4 3 2 2 3 3 5 6 8 8 7 7
1 1 3 4 4 5 6 11 5 7 8 6 12 8 6 13 18 18 18 17 16 16 15 14 14 15 17 16 15 16 14 13 11 10 8 7 6 4 2 0 2 3 4 5 7 7 7 6 5
1 1 6 3 6 4 9 8 7 8 4 12 11 6 9 18 20 18 17 16 15 15 14 14 14 14 15 14 14 14 13 11 10 8 7 7 5 3 2 3 5 5 5 6 7 5 5 6 4
4 2 5 7 9 6 12 8 6 5 12 5 6 7 13 24 22 19 18 16 15 14 14 14 15 15 15 14 12 11 10 10 10 8 8 6 5 4 4 4 7 7 6 5 6 4 4 4 3
5 2 6 6 8 10 15 11 11 5 12 5 5 11 25 25 23 22 21 19 18 17 16 16 16 15 14 12 11 10 10 9 9 9 8 7 7 6 6 7 6 7 2 3 3 2 4 4 3
4 4 4 3 8 13 17 12 9 7 13 10 12 18 24 25 23 22 21 20 20 18 16 16 15 15 14 12 11 11 10 9 9 9 9 8 8 8 6 5 4 3 4 2 2 1 2 3 4
7 6 5 6 10 16 17 15 10 12 5 10 14 23 24 18 21 21 20 19 18 17 17 15 16 15 15 13 13 12 11 11 10 10 11 11 9 9 8 5 5 4 3 3 2 3 5 3 6
6 6 7 7 14 13 16 15 10 12 3 11 19 23 22 19 22 20 20 19 19 20 19 18 17 17 16 16 13 13 13 13 13 12 13 12 12 10 8 9 6 7 6 4 6 7 6 6 7
2 1 3 9 13 12 16 9 9 9 10 15 21 23 20 19 22 19 18 19 20 20 21 20 19 18 17 17 18 14 13 14 14 14 13 15 15 13 11 11 10 7 8 5 6 6 6 6 6
8 6 8 10 13 7 15 8 13 11 14 16 19 20 19 19 21 21 22 22 22 22 20 21 20 19 20 19 18 18 15 15 14 14 15 15 16 13 11 12 9 8 6 6 6 6 4 5 5
4 5 6 8 13 9 15 13 12 16 17 18 20 18 18 18 23 22 22 22 20 20 21 21 19 19 20 19 17 17 15 16 16 17 16 18 17 13 13 11 10 9 8 6 4 3 4 4 4
4 8 10 10 11 9 13 6 12 18 17 18 19 19 17 17 21 24 23 23 22 23 20 21 20 19 20 20 18 16 17 15 13 13 13 9 11 11 10 10 11 9 7 6 3 2 3 6 7
12 7 9 9 13 10 14 6 9 15 18 18 18 18 18 19 21 24 25 24 23 22 22 21 21 20 20 17 17 14 15 16 14 15 15 13 12 12 11 9 8 7 5 2 2 3 4 5 6
14 14 16 8 10 11 12 12 6 14 16 17 17 18 19 20 23 24 25 24 23 22 22 23 23 25 20 17 15 15 14 15 15 15 14 15 13 11 9 8 6 6 5 3 3 3 4 4 4
14 17 14 8 11 12 10 13 8 15 20 19 19 19 19 19 18 23 25 25 26 26 27 24 25 26 25 19 16 13 12 12 12 10 12 12 12 12 9 8 7 6 4 4 3 3 3 3 3
13 18 15 13 10 4 8 14 12 13 17 18 19 19 19 20 20 20 25 27 27 27 27 27 28 28 26 22 16 13 12 11 8 10 9 12 11 11 10 8 6 6 5 4 3 2 2 2 1
17 13 16 14 13 13 12 12 12 17 18 21 21 21 21 21 19 19 23 28 29 29 28 28 30 30 27 26 20 19 17 15 12 9 10 10 12 12 11 9 7 6 5 4 2 2 2 2 2
10 11 16 17 18 7 10 7 11 10 17 23 25 25 24 23 22 22 24 28 30 30 27 27 30 30 28 27 25 21 19 16 11 9 10 11 14 14 12 10 7 9 6 7 5 3 3 2 2
10 11 6 5 9 9 16 14 11 9 16 24 23 25 25 24 23 23 28 27 28 27 27 27 30 36 33 30 28 25 22 19 14 12 11 11 13 15 15 14 12 11 10 9 5 6 5 5 4
12 13 7 9 7 9 9 12 16 11 19 22 20 26 27 24 22 22 22 26 29 30 30 29 31 33 31 29 28 28 25 22 20 17 14 14 15 15 17 17 15 13 12 9 9 8 7 6 6
19 21 10 16 12 12 5 11 8 20 21 14 15 14 20 24 22 23 22 28 29 30 31 31 31 30 30 30 30 31 28 23 22 21 17 17 18 17 17 16 15 15 13 12 11 7 7 8 8
11 13 16 9 2 7 7 6 11 14 13 12 17 15 20 23 25 27 24 31 31 31 34 36 34 32 32 31 30 29 29 27 23 23 24 21 21 16 17 16 17 17 15 12 10 9 8 8 10
13 14 11 8 18 17 8 5 6 6 11 15 13 18 21 22 24 24 23 29 31 34 35 34 34 38 37 28 30 31 29 33 29 25 25 24 22 20 18 19 19 16 14 13 12 10 10 10 9
8 9 3 7 8 15 15 13 8 13 13 12 15 19 19 21 23 23 22 30 33 33 31 32 33 33 31 34 34 32 28 31 34 28 26 26 25 24 22 21 18 15 14 14 13 14 12 12 12
21 20 18 11 12 6 10 13 6 14 14 11 14 11 14 18 21 21 21 27 29 30 30 34 35 35 38 36 32 32 32 39 32 31 33 26 25 23 21 19 18 16 15 13 14 14 13 14 13

GFSSGP_925_spd_021.txt.gz
Wind_Speed
19 17 18 13 5 3 5 10 13 12 13 13 9 13 10 7 5 12 20 20 23 23 20 18 19 18 17 15 17 18 19 19 17 16 15 15 15 14 13 13 12 13 12 11 11 12 11 11 11
18 17 19 7 3 4 8 14 13 13 16 14 10 5 14 18 25 22 19 26 24 23 19 16 16 15 16 15 16 16 17 16 15 13 13 12 12 11 11 11 10 11 10 10 10 11 10 10 9
17 16 10 7 10 0 10 9 16 14 7 8 7 8 11 20 24 22 25 23 22 20 19 15 15 15 16 16 16 16 15 14 13 12 11 10 10 9 9 10 9 10 9 9 10 9 9 8 8
14 12 9 7 11 12 14 14 13 11 10 8 18 14 22 22 19 29 28 23 20 17 16 15 15 16 15 15 15 15 14 13 12 9 10 9 8 8 9 7 8 8 7 8 8 9 8 7 7
19 10 9 8 10 11 12 11 10 11 11 11 21 21 19 16 26 25 25 20 19 17 17 15 16 16 15 15 14 14 13 12 10 8 9 7 6 7 6 6 6 6 7 8 8 8 8 7 6
11 9 4 10 10 8 10 5 5 14 10 8 19 19 15 19 24 23 23 21 23 18 20 16 16 15 14 14 14 13 11 10 10 9 7 6 5 5 5 4 5 5 6 6 7 7 8 8 5
16 13 8 13 9 10 9 6 7 11 11 15 19 17 15 20 22 22 24 23 22 19 19 17 15 14 14 13 14 12 10 10 9 7 6 5 3 2 2 3 3 3 4 5 6 6 6 6 5
13 12 9 9 13 12 10 5 10 11 13 17 15 11 19 22 23 22 20 21 21 17 16 15 15 14 13 12 13 11 8 9 7 6 6 5 4 1 2 4 3 6 4 3 3 3 4 4 4
13 9 7 8 8 14 10 12 7 11 13 9 4 18 22 25 24 22 20 20 19 22 17 16 16 15 14 14 12 11 9 8 8 6 5 3 8 4 3 3 6 6 4 2 2 2 4 1 1
10 6 3 9 10 17 11 11 11 12 14 12 9 22 27 25 23 22 21 24 20 14 13 21 18 17 15 15 12 10 9 8 8 7 7 5 5 3 4 4 6 3 4 2 1 2 2 4 6
15 3 6 12 9 17 12 11 11 10 12 15 14 20 23 23 22 21 20 20 19 19 18 20 20 16 15 16 11 12 11 11 10 8 7 7 3 5 6 3 4 5 6 4 5 4 2 8 5
16 22 4 7 7 7 13 14 10 7 13 17 16 21 21 20 19 21 20 20 20 21 18 17 17 16 15 12 12 12 12 10 8 9 9 7 6 6 6 6 4 4 6 6 6 7 5 7 5
14 12 4 4 9 10 16 13 11 10 8 15 18 21 22 20 21 21 20 20 20 20 19 18 18 16 15 11 12 11 9 10 10 8 8 9 9 7 6 5 8 5 7 10 6 8 6 7 8
12 14 7 4 8 9 9 15 10 14 10 15 18 20 21 20 22 21 21 21 21 21 20 19 18 18 16 15 10 10 9 9 10 10 9 9 10 8 8 8 9 10 8 7 6 8 9 8 9
14 9 12 9 10 11 11 16 15 19 13 16 18 18 20 20 23 22 22 22 22 21 20 20 19 18 17 16 14 14 14 13 12 12 9 9 7 9 9 9 9 10 6 4 5 6 7 9 10
18 17 16 14 14 11 17 16 17 18 16 16 17 17 18 20 22 23 23 23 23 22 21 21 20 20 18 18 16 15 15 12 11 10 6 10 10 10 9 10 13 10 7 7 6 8 12 9 9
15 17 20 15 16 13 16 15 18 17 17 16 16 17 18 19 20 24 24 23 23 22 22 21 20 19 20 18 17 16 14 13 12 11 13 9 11 11 11 13 9 5 8 6 7 9 5 8 10
22 21 20 18 16 13 15 5 17 16 17 17 16 16 18 19 21 24 24 24 23 23 22 21 21 19 17 16 17 15 11 13 14 15 10 11 10 11 10 11 7 7 7 7 5 5 8 9 7
23 21 18 15 24 19 17 14 13 15 16 16 19 17 19 20 20 25 25 25 24 23 23 22 21 20 19 18 16 17 18 18 13 13 13 11 9 12 10 12 7 6 7 2 5 6 8 6 2
28 23 17 13 21 20 18 19 18 17 15 16 17 20 20 20 20 23 26 27 27 27 25 24 23 21 22 20 20 16 14 15 15 17 10 9 10 10 9 9 7 8 3 2 3 4 7 5 1
27 26 18 18 19 17 16 18 19 17 19 16 16 17 21 22 22 22 24 28 28 29 28 27 26 24 23 22 20 13 11 11 8 11 11 12 11 11 8 8 6 3 3 4 3 3 3 9 3
25 25 24 19 14 15 19 16 22 19 21 20 19 18 20 23 22 22 24 29 31 31 30 27 27 26 25 24 21 20 16 17 16 13 8 7 8 10 9 8 7 4 4 3 3 3 4 2 5
25 25 23 23 19 20 23 18 11 21 19 19 21 21 21 21 23 24 24 32 31 31 31 30 28 27 26 26 25 19 20 16 11 9 6 9 10 9 10 10 7 6 6 6 1 2 3 1 5
24 25 24 24 18 16 23 18 20 16 18 19 22 22 22 22 23 23 28 31 33 32 32 31 30 29 29 26 27 23 18 20 13 14 11 11 11 12 12 11 9 7 6 4 3 3 3 3 3
28 24 16 19 18 20 25 19 23 18 18 18 19 21 23 22 21 22 23 23 30 32 33 31 31 31 30 29 27 27 24 19 17 11 15 12 14 13 16 14 12 9 8 5 4 4 3 3 3
31 29 19 25 17 20 25 24 21 19 11 15 16 15 20 22 21 22 24 25 29 31 32 32 31 31 31 30 29 27 26 25 22 20 16 16 15 14 17 16 13 11 9 7 5 6 6 5 5
30 28 28 27 24 19 21 19 22 7 18 18 14 17 14 21 22 25 25 29 31 31 33 34 31 32 33 32 30 29 28 27 25 22 24 18 16 12 15 16 16 13 12 9 7 7 7 7 7
32 24 26 23 28 27 24 22 17 19 16 17 19 16 14 16 21 23 24 28 32 34 33 33 34 32 32 31 32 31 30 29 26 24 21 22 17 17 19 18 17 15 14 14 9 8 10 9 10
21 27 23 25 24 21 20 19 21 18 18 20 22 22 17 19 19 20 22 30 34 34 35 35 34 33 32 33 33 31 31 29 29 27 25 23 19 19 16 20 20 20 20 13 11 11 10 9 11
27 29 32 17 28 20 22 19 14 17 15 12 16 16 20 17 18 20 21 25 31 33 36 36 37 37 36 35 33 33 31 32 31 31 28 27 24 23 23 23 23 25 27 32 24 18 9 15 15

GFSSGP_925_spd_024.txt.gz
Wind_Speed
20 19 15 8 3 3 3 7 16 11 13 13 14 10 10 2 2 11 19 22 24 23 21 20 22 21 20 20 24 23 22 20 19 18 19 18 17 16 16 15 13 12 12 11 11 11 12 12 11
19 18 13 8 4 5 5 17 18 5 16 26 20 13 16 21 23 20 20 25 24 24 21 19 20 18 18 21 22 20 20 18 16 16 16 16 14 14 13 12 10 11 10 10 10 11 11 11 10
19 23 3 7 4 4 6 10 16 18 11 9 14 12 12 20 20 19 29 28 23 24 21 21 18 18 18 19 19 18 16 16 15 13 13 13 12 12 12 10 9 9 8 9 9 10 10 9 9
11 8 10 13 16 9 14 13 14 16 20 18 21 19 23 26 29 31 29 25 23 20 19 19 18 17 18 17 16 16 15 15 13 12 12 11 10 10 9 8 7 7 7 8 9 9 9 8 7
17 5 8 4 16 16 11 21 17 9 23 24 24 23 21 28 32 30 27 23 24 21 18 17 18 17 17 16 15 15 14 13 11 11 10 9 9 8 7 6 5 5 6 7 8 9 9 7 6
8 7 15 3 9 12 11 14 11 19 21 24 23 19 16 35 34 27 26 23 21 21 19 17 17 16 17 15 15 14 13 11 10 9 8 7 6 5 4 4 4 5 5 6 7 7 8 7 5
16 13 15 8 9 9 10 2 16 16 18 20 22 17 19 24 31 26 24 22 25 26 21 18 16 16 16 15 15 13 12 11 9 7 6 4 3 2 3 3 5 6 5 6 6 6 6 6 5
9 13 21 3 13 12 8 14 6 13 21 21 19 15 17 22 35 27 29 23 28 24 21 22 17 17 15 15 14 12 10 9 7 5 4 2 1 5 3 2 4 8 5 5 6 5 6 4 4
10 2 13 9 14 15 10 12 12 18 14 15 10 17 26 26 29 30 40 30 23 23 22 19 18 17 18 15 12 10 8 8 6 4 3 4 4 2 11 2 5 6 7 5 7 6 6 3 5
7 6 6 17 5 12 11 13 15 12 14 8 24 24 29 26 25 28 25 21 23 21 18 21 20 17 18 15 13 9 7 7 5 5 7 4 9 7 9 5 6 6 6 8 6 4 5 9 7
13 6 16 30 15 14 11 17 11 19 13 13 26 24 22 23 22 22 27 25 29 22 22 21 22 22 17 20 16 14 14 15 10 10 7 7 4 2 5 2 1 7 4 2 2 5 9 5 8
12 16 24 16 10 9 13 17 12 13 15 19 22 23 21 20 18 21 27 26 24 20 22 27 24 22 16 20 13 20 20 14 18 15 11 8 3 4 4 1 6 4 5 4 4 5 5 5 8
17 26 21 7 11 9 9 15 17 8 20 19 23 24 22 20 21 22 22 25 27 23 23 32 28 23 17 12 14 13 10 12 10 13 11 9 8 8 5 5 4 6 6 6 4 5 4 8 6
18 11 13 4 9 7 15 16 14 15 17 21 22 23 21 21 23 22 21 23 27 25 19 23 22 21 17 13 7 4 6 5 6 6 14 9 8 8 4 3 6 10 7 5 1 8 7 8 8
21 18 7 9 10 9 11 17 12 19 15 20 20 21 21 20 25 22 21 22 22 22 21 22 22 21 21 16 11 6 8 7 9 10 6 6 6 7 12 6 8 10 4 5 4 6 6 9 11
22 18 13 19 15 11 14 8 14 21 17 19 20 20 20 20 23 24 23 23 24 23 22 21 21 25 24 19 15 13 13 14 13 8 14 11 7 8 9 8 10 9 6 4 3 6 10 13 7
22 17 19 9 13 16 16 9 10 15 16 19 18 19 19 18 20 25 26 24 26 24 23 23 21 22 26 22 18 17 15 14 14 13 8 10 9 7 6 11 11 4 4 7 5 6 8 11 8
21 21 18 16 17 18 14 14 12 22 19 19 19 19 18 20 20 25 26 26 26 27 26 26 23 20 28 24 22 16 15 9 11 18 13 9 9 7 8 11 7 5 4 4 2 4 7 8 5
23 20 24 12 7 17 18 19 21 27 23 19 20 18 20 20 20 25 26 27 26 27 25 27 24 24 21 19 19 14 10 14 20 16 13 10 13 8 10 12 9 6 6 4 3 2 4 8 4
27 27 24 15 24 24 17 27 29 28 20 19 20 19 19 19 19 20 27 26 28 27 30 29 28 23 25 20 19 19 24 23 23 22 16 13 9 10 11 8 8 11 3 5 2 3 5 7 2
28 27 22 16 20 22 18 19 21 22 20 19 19 21 20 19 20 21 21 27 28 30 30 31 30 25 26 21 22 23 17 10 3 18 18 16 15 11 12 7 5 6 3 6 5 3 2 8 1
26 26 26 22 17 12 16 13 12 16 22 21 20 19 23 22 21 20 21 27 27 29 30 31 31 30 26 30 21 21 17 12 10 10 16 20 11 11 13 9 8 7 4 8 3 3 1 4 8
26 26 26 25 21 16 22 8 15 21 18 24 22 21 20 23 22 22 23 30 31 29 32 31 33 31 29 28 25 21 17 20 17 17 16 16 14 11 12 12 11 7 9 8 6 3 2 2 7
25 24 25 22 19 15 20 14 21 20 24 22 22 22 22 21 23 22 26 33 34 32 33 35 35 34 32 30 31 26 22 23 15 12 15 13 13 16 13 14 13 10 9 8 6 5 4 3 3
28 25 15 18 17 17 22 23 15 18 23 21 10 18 22 21 20 21 22 22 33 35 35 35 37 35 34 31 30 33 25 25 23 12 18 17 18 21 19 17 16 15 13 10 9 9 6 5 3
25 25 16 20 17 19 23 21 15 24 19 14 22 35 25 23 19 21 22 20 32 36 36 35 38 37 36 35 30 31 33 21 24 21 17 20 19 22 26 26 20 17 16 17 18 17 14 11 7
27 25 26 26 23 17 18 23 23 18 19 24 25 10 13 25 22 22 22 25 28 35 37 38 36 38 37 36 35 31 32 31 25 22 25 19 20 14 27 29 25 23 22 21 21 20 18 16 12
29 19 24 20 26 25 21 21 12 19 20 22 18 22 15 19 21 21 19 22 29 32 36 36 36 39 38 37 36 35 33 34 31 29 27 29 19 19 26 29 28 25 24 24 21 18 19 17 17
20 23 24 22 20 17 17 16 16 16 24 22 20 20 21 15 17 21 21 25 30 30 33 35 36 34 37 38 36 34 35 34 35 31 31 31 29 26 27 30 30 28 27 26 25 23 19 22 18
28 28 28 17 22 18 18 16 13 14 14 20 16 15 15 13 15 17 21 20 29 32 34 36 35 36 38 38 36 37 35 35 34 36 31 32 33 28 29 32 31 31 29 30 29 26 19 22 21

GFSSGP_925_spd_030.txt.gz
Wind_Speed
16 14 9 1 2 2 2 1 4 5 2 2 6 9 10 8 2 5 18 19 26 26 23 23 25 24 25 25 26 25 25 24 22 21 21 19 18 17 15 13 11 10 10 10 9 8 8 7 8
21 12 2 1 2 1 2 1 5 3 6 9 12 11 10 7 8 13 16 26 28 28 25 24 24 25 24 25 25 23 23 22 20 18 18 17 15 14 12 11 10 10 10 9 8 7 7 6 8
17 3 2 3 2 3 3 2 11 7 13 4 6 11 5 6 16 17 25 31 30 28 25 24 25 25 24 25 23 22 21 21 19 17 16 15 14 12 11 10 10 9 10 9 6 6 6 6 7
8 5 3 2 9 5 3 15 15 12 8 6 14 11 7 10 13 20 34 33 31 29 27 23 25 24 24 23 21 20 19 18 16 15 14 13 12 11 10 9 8 8 8 7 6 6 6 6 8
5 3 1 8 9 4 12 17 15 10 8 16 12 10 7 11 24 34 32 29 33 30 26 24 25 25 24 22 20 19 17 16 15 14 12 12 11 9 8 7 7 6 6 5 6 7 6 7 8
2 1 3 4 8 6 15 21 20 16 15 19 15 13 5 24 29 29 32 33 30 30 27 25 24 25 23 20 20 19 16 15 14 13 12 11 10 9 8 7 5 4 4 4 5 6 7 7 8
4 2 7 9 3 15 23 21 20 19 16 8 15 10 10 17 27 31 33 29 30 28 28 26 23 22 21 20 19 18 16 15 14 13 11 9 8 7 7 5 5 3 4 4 5 5 6 7 8
6 3 4 5 13 9 15 10 19 25 14 18 15 8 15 24 31 31 30 29 30 29 27 27 25 23 23 21 19 18 16 15 14 11 10 9 7 6 6 4 3 5 4 5 5 5 6 6 7
4 3 3 4 7 6 21 16 13 8 21 11 6 11 29 36 32 29 25 24 29 27 28 27 26 24 23 22 19 18 16 15 13 11 9 8 4 5 6 4 1 4 6 7 7 6 5 3 4
5 3 6 6 5 1 21 24 17 12 20 7 15 17 31 32 30 28 26 25 25 27 29 28 27 25 24 23 21 19 17 16 13 11 10 9 5 3 6 5 1 2 4 6 4 3 4 4 6
7 6 6 6 10 6 23 24 19 25 17 21 24 24 26 30 27 28 27 32 32 34 31 30 29 26 26 25 22 19 18 16 14 14 11 8 5 4 8 8 4 1 2 4 4 4 4 3 3
4 9 11 5 6 9 20 21 20 23 13 24 25 29 27 22 22 28 29 28 28 32 33 31 30 29 28 25 24 21 20 18 17 16 13 11 6 5 7 10 6 4 1 2 4 3 2 1 2
4 6 14 13 10 12 12 18 19 14 22 22 23 26 25 24 29 32 34 33 32 30 34 33 33 32 28 27 25 21 20 21 18 16 15 13 10 7 8 9 6 3 3 2 4 1 1 1 2
8 15 17 15 15 9 11 7 7 17 23 24 26 27 25 23 30 29 28 29 34 33 33 34 34 33 31 28 24 21 21 20 19 20 16 15 13 6 5 8 4 2 2 3 2 3 1 2 1
6 6 14 16 12 4 15 6 15 24 26 26 25 24 23 22 32 30 34 32 37 35 38 37 36 34 34 31 26 17 19 25 25 22 20 17 15 11 9 8 6 3 2 3 2 1 0 2 3
3 3 4 14 19 10 10 10 22 26 26 23 22 20 21 22 30 31 36 36 35 34 36 39 38 36 35 32 26 19 13 13 16 17 20 22 17 12 8 6 6 5 3 5 4 1 2 5 3
2 5 7 11 9 16 5 4 24 23 24 22 21 20 16 15 20 32 37 37 36 36 40 40 38 38 36 33 29 23 17 14 12 12 16 22 19 13 9 6 6 3 6 4 4 3 2 0 2
5 3 6 6 2 17 5 8 22 23 24 24 22 20 20 17 16 28 37 37 36 39 42 43 40 40 38 35 30 26 20 19 14 15 16 18 18 16 10 7 7 6 7 6 5 7 1 2 2
4 5 8 11 4 4 17 19 20 25 22 22 21 21 21 23 20 23 36 37 34 36 41 41 41 43 41 34 28 26 23 22 20 17 17 18 17 17 14 10 11 10 8 9 10 7 3 3 1
9 13 17 9 10 8 10 20 19 25 26 27 24 22 23 20 18 21 30 36 39 38 40 40 45 45 43 36 32 27 26 23 22 19 18 17 20 20 17 12 13 14 10 10 10 6 7 5 4
15 16 15 9 7 1 8 3 3 9 14 17 22 24 22 24 21 20 23 34 39 38 40 43 45 45 44 39 34 29 25 24 24 23 22 24 20 23 19 15 13 11 11 15 11 7 10 7 6
13 15 14 8 4 7 6 4 6 10 9 14 20 21 22 23 22 21 24 31 37 40 43 44 45 44 41 41 38 34 29 28 30 28 23 22 23 23 19 17 14 10 14 15 13 11 11 8 7
14 12 10 10 6 4 4 4 7 9 12 11 18 24 23 24 24 23 25 37 42 41 41 45 47 45 42 41 40 39 34 32 26 23 20 25 25 23 21 18 17 14 16 18 15 13 11 10 7
14 7 8 3 5 8 14 13 6 11 12 17 17 20 26 24 25 25 36 38 37 39 39 39 42 42 44 43 43 42 39 33 29 27 20 25 28 25 22 22 21 19 18 19 16 14 12 11 8
11 7 5 7 8 10 10 6 12 18 19 24 23 22 25 25 24 23 22 22 32 35 37 38 41 39 43 47 46 44 41 34 31 32 29 27 29 29 27 27 24 24 21 20 19 17 15 15 12
9 15 9 10 4 5 6 9 13 15 17 26 27 22 22 24 24 25 25 28 35 37 39 40 41 40 41 44 46 45 41 37 34 31 31 30 33 34 30 31 28 26 23 23 20 17 15 15 15
10 10 12 6 3 2 4 7 6 10 12 24 25 22 23 27 26 28 26 32 38 37 41 44 42 42 43 45 46 46 44 40 37 35 26 30 34 34 32 32 32 28 26 25 22 19 18 17 15
18 7 4 2 15 17 5 6 8 8 14 14 22 25 26 23 27 26 22 28 37 42 43 43 45 46 46 45 43 45 45 44 41 36 33 34 34 34 35 34 34 31 29 28 26 23 20 19 18
11 11 3 6 8 12 7 16 9 10 10 14 22 26 26 24 22 25 24 31 40 41 39 41 40 42 40 42 41 40 42 43 43 43 36 35 35 36 36 37 36 35 34 31 30 28 24 22 21
20 15 11 9 7 6 16 25 3 10 9 11 19 25 25 17 15 20 25 23 29 34 36 41 40 41 43 43 42 41 40 38 43 43 45 37 38 38 37 35 40 40 38 34 33 32 30 27 26

GFSSGP_925_spd_033.txt.gz
Wind_Speed
14 13 8 1 1 0 2 2 2 5 3 0 2 5 8 5 2 4 24 17 22 24 24 26 26 25 24 24 24 24 23 22 21 20 19 17 15 14 13 11 12 11 9 9 8 9 10 9 9
16 9 1 1 3 3 3 2 3 4 8 12 10 8 7 5 5 13 15 24 26 25 24 26 26 25 23 23 23 23 20 20 19 19 17 15 13 12 10 10 10 9 8 8 7 7 8 8 7
12 1 2 2 2 2 3 3 7 8 9 4 5 7 4 4 11 14 20 30 28 24 24 24 24 25 22 21 21 22 19 18 18 16 15 14 12 10 9 9 8 9 8 7 7 6 7 7 7
7 1 1 2 4 5 4 4 8 11 5 7 13 8 5 14 10 12 32 31 29 26 23 22 23 23 22 20 19 19 18 17 16 15 14 12 10 9 8 8 7 8 6 7 7 6 6 7 7
2 2 3 4 7 4 1 6 7 6 5 11 5 6 8 5 16 32 30 29 29 25 23 22 23 23 21 19 18 17 17 15 14 14 13 11 9 7 6 6 5 5 6 5 7 7 7 8 7
3 3 1 3 6 6 5 8 8 10 12 14 12 9 3 21 29 26 28 29 29 27 23 23 22 22 21 19 17 16 15 14 13 13 12 10 8 7 6 5 4 3 4 5 6 7 7 7 8
4 5 5 3 6 4 5 7 8 13 12 7 9 5 7 16 24 28 26 29 28 26 25 24 23 21 20 19 17 16 15 14 13 12 11 9 8 7 6 5 4 3 3 4 4 5 7 8 6
4 2 2 6 5 3 10 10 12 11 6 13 12 7 11 21 27 27 27 28 28 27 25 25 25 23 22 20 18 16 15 14 14 12 11 9 7 6 5 3 3 3 3 4 4 5 7 5 3
2 1 4 6 10 5 12 7 10 3 13 3 5 8 21 31 31 26 23 23 26 27 27 26 26 24 23 21 19 17 15 16 14 12 11 8 7 5 4 4 4 2 3 4 7 4 2 4 1
4 4 6 5 8 15 16 15 15 6 13 1 9 16 31 32 30 26 23 22 25 26 29 28 28 26 24 23 21 20 18 17 15 13 11 9 6 4 5 3 2 3 1 1 3 1 1 3 2
5 6 4 5 7 19 22 13 7 15 10 7 20 23 24 27 26 25 24 26 30 32 31 31 30 28 27 25 24 22 20 18 16 14 12 10 8 5 5 5 5 4 3 2 1 2 2 2 1
4 14 13 5 5 18 19 14 5 18 10 17 24 29 25 21 20 24 24 25 27 30 35 33 31 30 29 26 25 23 22 19 17 16 14 11 9 6 6 7 5 6 3 3 2 1 1 1 1
9 20 7 4 4 17 16 19 13 21 8 17 20 23 24 21 25 28 29 29 28 30 34 36 34 32 30 28 26 25 23 21 18 17 16 14 11 7 9 11 8 4 5 4 4 1 4 2 1
6 16 17 9 10 18 14 13 10 16 19 20 23 24 22 22 27 27 25 26 27 30 33 36 36 34 31 31 29 25 21 20 18 17 16 14 12 9 9 8 9 6 4 3 3 2 3 2 3
7 8 6 8 6 11 14 10 19 15 22 22 23 22 22 22 28 27 31 30 31 34 35 34 37 35 33 32 29 26 23 21 21 21 17 16 15 13 9 7 7 5 5 6 4 2 3 5 1
3 1 2 7 8 7 17 20 16 22 24 22 22 21 21 22 27 31 33 34 33 31 34 36 36 35 34 33 28 24 21 22 23 22 20 21 17 15 11 10 10 8 6 8 6 3 3 3 2
4 4 6 8 9 6 10 5 12 22 22 22 21 21 20 19 22 31 33 33 33 36 35 37 37 35 35 33 30 25 19 14 15 16 18 20 22 18 13 9 8 8 7 7 5 5 5 4 4
5 4 5 6 3 8 7 6 19 21 22 23 22 21 20 20 25 34 33 34 33 34 38 39 40 38 36 35 32 28 24 18 17 18 17 20 23 21 15 11 9 9 8 9 6 7 4 2 2
4 3 5 3 1 2 4 7 21 22 18 21 20 20 21 22 24 34 33 34 32 32 36 38 37 39 39 36 34 32 30 25 22 18 19 18 23 22 18 14 12 11 10 9 8 8 7 6 3
6 7 13 3 7 4 7 10 19 23 27 27 25 22 22 21 16 24 31 34 34 39 40 39 41 42 43 40 37 34 34 31 27 23 19 19 19 23 22 17 14 14 12 10 12 11 8 8 5
6 10 11 9 2 3 5 2 12 20 13 14 18 22 21 22 23 18 27 35 35 36 41 43 44 44 44 43 39 34 31 30 26 25 21 19 19 20 23 18 16 15 16 14 14 12 9 8 5
9 7 7 5 4 3 6 4 7 17 18 16 16 18 20 21 20 18 21 32 38 39 40 42 43 44 44 45 40 35 29 26 28 27 24 23 21 22 23 20 19 16 16 17 18 12 10 8 7
10 6 6 3 4 1 5 0 6 17 19 21 19 21 22 22 21 22 22 34 42 39 39 41 46 45 43 47 41 38 31 33 29 28 25 25 22 24 25 23 21 19 17 17 17 14 12 11 9
4 3 4 1 3 6 16 8 7 12 25 24 21 23 25 23 23 23 34 34 33 36 36 39 41 44 45 48 47 42 37 35 34 28 26 26 24 25 26 25 23 22 18 18 18 16 14 13 10
5 7 3 3 4 10 9 6 14 9 21 26 25 26 27 25 24 23 23 21 30 34 37 37 39 39 43 46 45 45 42 42 39 35 28 25 23 27 29 27 26 26 21 20 20 18 16 14 13
8 13 6 7 3 6 4 9 8 15 11 19 25 26 25 24 24 25 24 27 33 38 39 39 39 40 40 44 45 46 44 43 41 38 32 32 26 27 31 30 29 28 24 22 21 20 18 16 16
6 11 12 3 2 3 5 8 5 9 11 10 14 15 22 24 25 26 26 29 35 36 41 43 41 42 41 44 44 42 44 41 38 39 33 34 32 31 32 34 31 30 28 25 23 22 21 17 16
14 8 4 2 11 12 4 7 7 11 17 11 13 13 20 23 23 24 23 26 34 36 39 40 42 44 45 46 44 43 45 44 40 40 37 35 32 33 34 36 33 32 31 28 26 25 22 20 18
5 8 3 6 6 7 3 11 8 10 13 12 15 17 21 22 24 24 22 28 36 38 36 41 40 40 40 41 41 39 39 38 39 43 40 38 33 32 35 37 35 35 34 31 29 28 26 23 20
15 11 9 5 12 8 13 11 3 17 14 10 11 13 18 22 22 20 21 22 28 32 34 38 39 39 43 43 42 42 41 38 39 43 44 42 40 36 36 36 36 37 37 35 33 31 30 28 25

GFSSGP_925_spd_036.txt.gz
Wind_Speed
15 14 10 0 1 1 2 1 3 4 3 2 3 2 6 4 2 4 19 19 28 27 23 22 21 21 22 23 25 23 22 21 21 19 18 17 15 14 12 11 11 9 10 9 8 9 9 8 8
21 17 3 1 1 1 3 1 6 3 5 10 7 6 5 4 3 9 14 24 25 27 24 23 23 21 22 22 22 21 20 19 19 18 17 15 14 13 10 10 10 8 8 8 8 9 8 8 7
18 5 3 3 2 0 3 3 5 9 8 3 4 5 3 3 9 14 19 29 27 25 24 24 24 21 20 20 20 19 17 17 17 15 14 13 12 11 9 9 9 8 8 7 8 8 7 7 7
8 0 1 2 2 3 3 6 13 9 4 6 12 8 5 12 13 11 31 29 27 26 25 24 22 21 19 18 18 17 16 15 14 13 12 11 10 9 8 7 7 7 7 7 7 8 7 6 6
3 1 3 2 3 2 1 10 7 6 4 6 2 4 7 3 10 31 29 29 28 27 24 24 22 21 19 18 17 15 15 14 13 12 11 10 9 8 7 6 6 5 6 6 7 8 7 6 6
2 2 3 2 3 5 2 9 7 7 7 9 9 8 4 18 28 26 29 29 27 26 25 23 22 20 18 17 16 15 14 12 12 11 9 9 8 7 6 4 3 4 4 6 7 7 7 6 5
3 2 2 3 3 4 4 5 7 7 10 7 8 5 6 14 23 29 28 28 26 24 23 23 22 19 18 16 15 14 13 12 11 10 9 8 7 6 4 3 2 2 4 6 6 7 7 6 5
3 2 1 5 2 4 7 5 10 7 3 9 11 7 9 15 25 25 27 28 25 24 23 23 23 21 20 17 15 14 13 12 11 9 8 6 5 3 1 2 3 3 3 5 7 5 4 5 5
1 4 4 3 5 3 9 5 5 5 10 4 5 6 13 29 26 24 24 24 24 24 24 24 24 23 21 19 16 14 12 12 11 9 7 5 4 3 1 2 4 6 4 5 4 3 2 2 4
3 3 7 6 5 6 12 7 10 4 10 2 6 14 29 29 27 24 22 22 23 23 26 25 25 24 22 21 19 17 14 13 12 10 8 6 3 2 3 1 1 3 3 1 1 0 1 2 3
5 6 5 4 5 9 13 9 7 10 8 7 16 22 23 27 23 23 23 23 26 26 26 28 27 25 24 23 22 19 17 15 14 12 10 8 5 3 3 3 2 1 2 1 1 0 1 2 3
4 11 6 7 4 8 12 10 8 12 4 8 20 27 24 21 20 24 23 24 25 27 27 31 29 28 26 25 23 21 19 17 16 13 11 9 7 6 4 5 4 3 2 1 2 1 1 2 1
7 10 6 10 6 12 9 15 13 14 4 16 18 22 23 19 23 25 25 25 28 29 31 34 32 30 29 26 24 23 21 20 16 15 13 12 10 7 6 7 7 5 6 4 3 1 1 1 2
4 12 15 7 9 9 13 8 6 9 12 17 21 20 20 21 25 23 23 24 27 31 33 34 34 32 30 29 26 25 22 20 18 16 15 14 12 10 6 7 9 6 5 3 4 1 2 2 2
5 6 3 8 8 6 7 3 12 5 15 18 20 17 17 19 25 25 27 26 28 31 32 34 35 33 31 30 29 26 23 20 19 18 17 16 13 11 7 8 8 7 5 7 5 1 1 3 1
3 1 1 1 8 6 13 13 17 14 18 18 20 17 17 17 25 28 28 28 28 26 32 35 35 35 34 32 30 27 25 22 21 21 18 17 13 12 12 10 10 10 8 8 7 4 2 2 4
5 4 5 5 10 5 9 7 16 19 20 19 18 18 17 16 20 26 28 28 29 33 34 34 35 34 35 33 32 28 24 22 21 22 20 20 18 16 15 13 10 9 8 7 6 4 4 4 2
6 4 4 5 2 4 9 13 5 21 22 22 20 18 18 18 22 29 29 29 30 33 35 35 35 35 34 33 32 29 26 22 19 18 18 16 17 19 19 15 10 9 9 9 7 5 3 1 3
5 4 4 2 2 4 7 6 9 16 16 19 20 20 19 21 22 26 27 28 29 31 34 36 35 36 34 35 33 31 29 25 21 17 16 16 18 19 20 17 12 10 10 9 7 5 5 2 1
5 5 8 4 6 2 4 8 10 17 23 24 22 20 22 19 17 21 26 28 30 34 39 39 41 40 39 38 37 32 32 30 26 22 21 18 19 20 23 21 17 13 12 11 8 8 6 4 2
5 13 6 5 4 2 4 6 7 12 2 12 15 19 17 18 19 18 25 31 33 34 38 42 45 44 43 41 35 30 28 28 29 28 26 22 21 19 21 22 19 15 13 13 10 11 9 5 4
9 6 6 7 4 4 3 5 5 13 20 16 15 17 18 19 17 15 21 28 35 39 38 39 38 40 43 42 36 34 29 25 30 34 30 26 23 21 20 21 21 18 15 15 14 12 9 7 7
8 8 9 6 6 2 3 1 6 10 14 17 18 19 20 21 19 20 20 35 39 37 38 40 42 43 43 46 43 40 31 34 35 32 27 25 24 22 20 19 22 20 16 15 15 15 12 9 9
8 4 6 5 4 7 10 9 5 8 19 20 17 20 21 21 22 21 29 33 31 31 32 35 38 42 43 45 46 40 35 32 33 29 25 26 26 24 22 22 24 22 18 17 16 16 13 11 11
7 8 2 2 3 11 8 8 14 10 16 22 25 25 24 23 22 21 21 20 29 32 35 36 38 38 41 44 45 44 43 40 39 36 29 27 27 26 26 25 26 24 21 19 17 18 15 14 14
9 9 6 8 4 7 7 9 7 11 11 18 20 24 21 20 21 23 23 26 31 36 37 35 37 39 41 43 45 46 44 40 41 40 35 32 30 29 26 26 27 26 22 21 20 20 18 16 14
6 11 11 5 2 2 5 6 6 5 11 14 19 17 19 21 22 24 25 31 33 34 39 40 39 40 39 43 45 43 43 40 38 41 39 37 32 30 27 27 29 28 26 24 22 23 21 19 17
10 9 4 1 6 6 5 4 6 10 13 14 9 16 19 19 22 23 22 28 34 37 40 40 41 42 45 45 43 44 46 46 44 43 41 41 37 33 32 26 29 31 29 28 26 25 23 21 19
4 6 3 6 6 7 0 6 8 10 14 18 19 17 18 18 20 22 22 31 35 34 34 40 40 39 40 40 40 40 39 40 41 44 44 41 39 35 34 31 30 34 33 31 30 29 27 25 22
21 9 7 6 8 6 4 7 4 10 11 14 14 14 12 13 18 20 22 22 28 33 34 37 38 38 41 41 41 42 41 40 41 45 46 43 40 38 36 35 35 35 37 35 35 34 32 30 27